Find Starlink 31676

NORAD ID: 59900 Int'l Des: 2024-100 Owner: SPXS Country: US Constellation: starlink operational
LEOCIRCULAR

当前视图

正在加载3D地球...

About Starlink 31676

Starlink 31676 (NORAD 59900) is a starlink constellation satellite (v2 mini) launched May 28, 2024 by SPXS of US. It operates in LEO, CIRCULAR orbit with a mass of 730.00 kg.

即将过境

Passes for default location (London). Set your location on the main map for personalized predictions.

高度历史

Loading altitude history...

两行轨道根数

1 59900U 24100R 26237.04487365 -.00000389 00000-0 -46032-5 0 9999
2 59900 43.0017 254.6997 0001218 263.6910 96.3803 15.27573945126793
Epoch: Aug 25, 2026 • Age: 13 hours

当前状态

高度 486.0 km
远地点 / 近地点 N/A
速度 7.62 km/s
星下点 -16.55°S, 101.7°W
发射日期 May 28, 2024
运行时间 2.2 years
类型 internet

技术详情

分类 Payload
质量 730.00 kg
干质量 700.00 kg
总质量 730.00 kg
长度 0.30 m
直径 4.10 m
跨度 29.00 m
形状 Box + pan
制造商 SPXS
平台类型 Starlink V2M
阶段状态 In Orbit
所有者/国家 SPXS/US

Most Searched